EPGD Weather Reports


Display with metric or nautical units.
time (UTC)temp
F
wind
direction
speed
MPH
gust
MPH
rain 1hr
in
rain 24hr
in
rain mn
in
humidity
%
barometer
mb
20260507103504 46 10 13.0 0.0 0.00 0.00 0.00 75 1014.0
20260507100505 46 350 13.0 0.0 0.00 0.00 0.00 75 1013.0
20260507093503 46 350 13.0 0.0 0.00 0.00 0.00 81 1013.0
20260507090504 46 360 14.0 0.0 0.00 0.00 0.00 81 1013.0
20260507083504 46 360 13.0 0.0 0.00 0.00 0.00 81 1012.0
20260507080504 44 350 13.0 0.0 0.00 0.00 0.00 81 1012.0
20260507073504 42 360 14.0 0.0 0.00 0.00 0.00 86 1012.0
20260507070504 42 360 12.0 0.0 0.00 0.00 0.00 86 1012.0
20260507063503 41 20 13.0 0.0 0.00 0.00 0.00 93 1011.0
20260507060504 41 10 9.0 0.0 0.00 0.00 0.00 93 1011.0
20260507053504 41 10 13.0 0.0 0.00 0.00 0.00 100 1011.0
20260507050504 41 10 12.0 0.0 0.00 0.00 0.00 100 1010.0
20260507043504 41 10 10.0 0.0 0.00 0.00 0.00 100 1010.0
20260507040504 41 360 13.0 0.0 0.00 0.00 0.00 100 1010.0
20260507033504 41 360 10.0 0.0 0.00 0.00 0.00 100 1010.0
20260507030504 41 20 9.0 0.0 0.00 0.00 0.00 93 1010.0
20260507023504 41 10 10.0 0.0 0.00 0.00 0.00 93 1010.0
20260507020504 41 10 10.0 0.0 0.00 0.00 0.00 93 1010.0
20260507013503 41 10 10.0 0.0 0.00 0.00 0.00 100 1010.0
20260507010504 41 20 9.0 0.0 0.00 0.00 0.00 100 1010.0
20260507003504 41 360 12.0 0.0 0.00 0.00 0.00 100 1009.0
20260507000504 41 10 13.0 0.0 0.00 0.00 0.00 100 1009.0
20260506233503 41 10 10.0 0.0 0.00 0.00 0.00 100 1009.0
20260506230504 41 10 9.0 0.0 0.00 0.00 0.00 100 1009.0
20260506223503 41 30 10.0 0.0 0.00 0.00 0.00 100 1009.0
20260506220504 41 30 10.0 0.0 0.00 0.00 0.00 100 1009.0
20260506213504 41 30 13.0 0.0 0.00 0.00 0.00 100 1009.0
20260506210504 41 40 15.0 0.0 0.00 0.00 0.00 100 1009.0
20260506203503 41 40 17.0 0.0 0.00 0.00 0.00 100 1008.0
20260506200504 41 40 15.0 0.0 0.00 0.00 0.00 100 1008.0
20260506193504 41 30 13.0 0.0 0.00 0.00 0.00 100 1008.0
20260506190504 41 40 17.0 0.0 0.00 0.00 0.00 100 1008.0
20260506183504 41 40 15.0 0.0 0.00 0.00 0.00 100 1008.0
20260506180504 41 40 15.0 0.0 0.00 0.00 0.00 100 1007.0
20260506173503 41 40 17.0 0.0 0.00 0.00 0.00 100 1007.0
20260506170504 41 40 18.0 0.0 0.00 0.00 0.00 100 1007.0
20260506163504 41 40 17.0 0.0 0.00 0.00 0.00 100 1007.0
20260506160503 41 40 18.0 0.0 0.00 0.00 0.00 100 1007.0
20260506153504 41 40 20.0 0.0 0.00 0.00 0.00 100 1007.0
20260506150504 41 50 16.0 0.0 0.00 0.00 0.00 100 1007.0
20260506143504 41 50 15.0 0.0 0.00 0.00 0.00 100 1007.0
20260506140504 41 50 20.0 0.0 0.00 0.00 0.00 100 1007.0
20260506133503 42 50 18.0 0.0 0.00 0.00 0.00 93 1007.0
20260506130504 42 50 20.0 0.0 0.00 0.00 0.00 86 1007.0
20260506123503 42 50 21.0 0.0 0.00 0.00 0.00 86 1007.0
20260506120504 42 40 21.0 0.0 0.00 0.00 0.00 86 1007.0
20260506113503 42 40 18.0 0.0 0.00 0.00 0.00 86 1007.0
20260506110504 42 40 20.0 0.0 0.00 0.00 0.00 86 1007.0